Home   Weather   Columbus   Past weeks
Flag for USA

Past Weather in Columbus, New Mexico, USA — Yesterday and Last 2 Weeks

Now
78 °F

Passing clouds.


Feels Like: 79 °F
Forecast: 95 / 76 °F
Wind: 12 mph from South

Location: El Paso International Airport

Current Time: Jul 2, 2020 at 3:32:11 am

Latest Report: Jul 2, 2020 at 2:51 am


Visibility: 10 mi

Pressure: 29.80 "Hg

Humidity: 40%

Dew Point: 52 °F

Location of ColumbusLocation

Past Weather in Columbus — Graph

°F

Columbus Temperature Yesterday

Maximum temperature yesterday: 92 °F (at 3:51 pm)
Minimum temperature yesterday: 71 °F (at 5:51 am)
Average temperature yesterday: 84 °F

High & Low Weather Summary for the Past Weeks

 TemperatureHumidityPressure
High105 °F (Jun 22, 4:51 pm)55% (Jun 25, 5:51 am)30.00 "Hg (Jun 25, 5:51 am)
Low69 °F (Jun 19, 5:51 am)6% (Jun 20, 1:51 pm)29.53 "Hg (Jun 28, 6:51 pm)
Average88 °F20%29.72 "Hg
* Reported Jun 17 1:51 am — Jul 2 1:51 am, Columbus. Weather by CustomWeather, © 2020

Note: Actual official high and low records may vary slightly from our data, if they occured in-between our weather recording intervals... More about our weather records

Columbus Weather History for the Previous 24 Hours

Scroll right to see more
 ConditionsComfort  
Time TempWeatherWind HumidityBarometerVisibility
1:51 am
Thu, Jul 2
80 °FMostly cloudy.10 mph35%29.78 "Hg10 mi
12:51 am81 °FPassing clouds.8 mph34%29.79 "Hg10 mi
11:51 pm
Wed, Jul 1
81 °FPartly cloudy.10 mph33%29.80 "Hg10 mi
10:51 pm82 °FPartly cloudy.12 mph29%29.80 "Hg10 mi
9:51 pm84 °FPartly cloudy.18 mph29%29.79 "Hg10 mi
8:51 pm85 °FPassing clouds.14 mph27%29.76 "Hg10 mi
7:51 pm86 °FPartly sunny.15 mph26%29.75 "Hg10 mi
6:51 pm88 °FPartly sunny.16 mph23%29.74 "Hg10 mi
5:51 pm91 °FPartly sunny.15 mph17%29.73 "Hg10 mi
4:51 pm92 °FPartly sunny.13 mph16%29.73 "Hg10 mi
3:51 pm92 °FPartly sunny.5 mph16%29.75 "Hg10 mi
2:51 pm90 °FPartly sunny.7 mph17%29.76 "Hg10 mi
1:51 pm91 °FPartly sunny.10 mph16%29.78 "Hg10 mi
12:51 pm90 °FBroken clouds.No wind17%29.79 "Hg10 mi
11:51 am87 °FBroken clouds.3 mph17%29.80 "Hg10 mi
10:51 am85 °FBroken clouds.5 mph19%29.80 "Hg10 mi
9:51 am81 °FBroken clouds.7 mph21%29.80 "Hg10 mi
8:51 am80 °FBroken clouds.5 mph23%29.78 "Hg10 mi
7:51 am76 °FBroken clouds.No wind27%29.76 "Hg10 mi
6:51 am72 °FPartly sunny.7 mph28%29.75 "Hg10 mi
5:51 am71 °FPassing clouds.5 mph28%29.73 "Hg10 mi
4:51 am80 °FPassing clouds.5 mph19%29.71 "Hg10 mi
3:51 am82 °FPassing clouds.5 mph18%29.70 "Hg10 mi
Weather by CustomWeather, © 2020

See weather overview